This is the latest recevied weather packets stored in our database for station/object K0WOI. If no packets are shown the sender has not sent any weather packets the latest 10 day(s).
| Time | Temp. | Humidity | Pressure | Rain* | Wind** | Luminosity | Snow |
|---|---|---|---|---|---|---|---|
| 1777969333 | 8.33° C | 90% | 1007.1 hPa | 0 mm | - | 0 W/m² | - |
| 1777969028 | 8.33° C | 85% | 1006.9 hPa | 0 mm | - | 0 W/m² | - |
| 1777968726 | 8.33° C | 79% | 1007.2 hPa | 0 mm | - | 0 W/m² | - |
| 1777968423 | 7.78° C | 78% | 1008 hPa | 0 mm | - | 0 W/m² | - |
| 1777968119 | 7.78° C | 83% | 1008.1 hPa | 0 mm | - | 0 W/m² | - |
| 1777967815 | 7.78° C | 91% | 1007.1 hPa | 0 mm | - | 0 W/m² | - |
| 1777967512 | 7.78° C | 93% | 1007.1 hPa | 0 mm | - | 0 W/m² | - |
| 1777967209 | 8.33° C | 93% | 1007 hPa | 0 mm | - | 0 W/m² | - |
| 1777966905 | 8.33° C | 92% | 1006.9 hPa | 1.78 mm | - | 0 W/m² | - |
| 1777966603 | 8.33° C | 90% | 1006.5 hPa | 1.78 mm | - | 0 W/m² | - |
| 1777966301 | 8.89° C | 87% | 1006.8 hPa | 0 mm | - | 0 W/m² | - |
| 1777965996 | 8.33° C | 79% | 1007 hPa | 0 mm | - | 0 W/m² | - |
| 1777965693 | 8.33° C | 86% | 1007.3 hPa | 0 mm | - | 0 W/m² | - |
| 1777965389 | 8.33° C | 89% | 1007.9 hPa | 0 mm | - | 0 W/m² | - |
| 1777965087 | 7.78° C | 90% | 1008.2 hPa | 0 mm | - | 0 W/m² | - |
| 1777964784 | 8.33° C | 90% | 1008.4 hPa | 0 mm | - | 0 W/m² | - |
| 1777964480 | 8.33° C | 88% | 1008 hPa | 0 mm | - | 0 W/m² | - |
| 1777964176 | 8.33° C | 86% | 1008 hPa | 0 mm | - | 0 W/m² | - |
| 1777963873 | 8.33° C | 82% | 1008.1 hPa | 0 mm | - | 0 W/m² | - |
| 1777963570 | 8.33° C | 82% | 1008.4 hPa | 0 mm | - | 0 W/m² | - |
| 1777963269 | 7.78° C | 80% | 1008.7 hPa | 0 mm | - | 0 W/m² | - |
| 1777962965 | 8.33° C | 82% | 1008.9 hPa | 0 mm | - | 0 W/m² | - |
| 1777962661 | 8.89° C | 77% | 1008.2 hPa | 1.27 mm | - | 0 W/m² | - |
| 1777962358 | 9.44° C | 71% | 1008.1 hPa | 1.27 mm | - | 0 W/m² | - |
| 1777962055 | 10° C | 64% | 1007.8 hPa | 0 mm | - | 0 W/m² | - |
* Rain latest hour (hover to see other rain measurements)
** Current wind speed in m/s (hover to see current wind gust speed)